This is the latest recevied weather packets stored in our database for station/object NT9G. If no packets are shown the sender has not sent any weather packets the latest 10 day(s).
| Time | Temp. | Humidity | Pressure | Rain* | Wind** | Luminosity | Snow |
|---|---|---|---|---|---|---|---|
| 1777611860 | 9.44° C | 92% | 1015.2 hPa | 0 mm | - | - | - |
| 1777611560 | 9.44° C | 92% | 1015.2 hPa | 0 mm | - | - | - |
| 1777611259 | 9.44° C | 92% | 1015.1 hPa | 0 mm | - | - | - |
| 1777610959 | 9.44° C | 92% | 1015.1 hPa | 0 mm | - | - | - |
| 1777610358 | 9.44° C | 91% | 1015.2 hPa | 0 mm | - | - | - |
| 1777610058 | 9.44° C | 91% | 1015.2 hPa | 0 mm | - | - | - |
| 1777609758 | 9.44° C | 91% | 1015.3 hPa | 0 mm | - | - | - |
| 1777609458 | 9.44° C | 91% | 1015.3 hPa | 0 mm | - | - | - |
| 1777609157 | 9.44° C | 91% | 1015.3 hPa | 0 mm | - | - | - |
| 1777608857 | 9.44° C | 91% | 1015.3 hPa | 0 mm | - | - | - |
| 1777608557 | 10° C | 92% | 1015.4 hPa | 0 mm | - | - | - |
| 1777608256 | 10° C | 92% | 1015.4 hPa | 0 mm | - | - | - |
| 1777607956 | 10° C | 92% | 1015.4 hPa | 0 mm | - | - | - |
| 1777607656 | 10° C | 91% | 1015.4 hPa | 0 mm | - | - | - |
| 1777607356 | 10° C | 91% | 1015.4 hPa | 0 mm | - | - | - |
| 1777607055 | 10° C | 91% | 1015.4 hPa | 0 mm | - | - | - |
| 1777606755 | 10° C | 91% | 1015.4 hPa | 0 mm | - | - | - |
| 1777606455 | 10° C | 92% | 1015.5 hPa | 0 mm | - | - | - |
| 1777606154 | 10° C | 94% | 1015.5 hPa | 0 mm | - | - | - |
| 1777605554 | 10° C | 96% | 1015.6 hPa | 0 mm | - | - | - |
| 1777603151 | 10.56° C | 93% | 1015.4 hPa | 0 mm | - | - | - |
| 1777602551 | 10.56° C | 90% | 1015.3 hPa | 0 mm | - | - | - |
| 1777602251 | 11.11° C | 87% | 1015 hPa | 0 mm | - | - | - |
| 1777601950 | 11.11° C | 81% | 1015.1 hPa | 0 mm | - | - | - |
| 1777601650 | 11.11° C | 76% | 1015.2 hPa | 0 mm | - | - | - |
* Rain since midnight (hover to see other rain measurements)
** Current wind speed in m/s (hover to see current wind gust speed)